Regional Weather Roundup
Issued by NWS

Home | Current Version | Previous Version | Graphics & Text | Print | Product List | Glossary Off
Versions: 1 2 3 4 5 6 7 8 9 10 11 12 13 14 15 16 17 18 19 20 21 22 23 24 25 26 27 28 29 30 31 32 33 34 35 36 37 38 39 40 41 42 43 44 45 46 47 48 49 50

000
ASUS43 KMKX 020000
RWRWI

WISCONSIN REGIONAL WEATHER ROUNDUP
NATIONAL WEATHER SERVICE MILWAUKEE/SULLIVAN WI
700 PM CDT MON SEP 01 2014

NOTE: "FAIR" INDICATES FEW OR NO CLOUDS BELOW 12,000 FEET WITH NO
SIGNIFICANT WEATHER AND/OR OBSTRUCTIONS TO VISIBILITY.

WIZ001-002-006>008-014>016-023>028-020100-
NORTHWEST WISCONSIN

CITY           SKY/WX    TMP DP  RH WIND       PRES   REMARKS
SUPERIOR ARPT  CLEAR     70  54  56 W8        29.70R
ASHLAND        PTCLDY    68  56  65 W7        29.70R
6HR MIN TEMP:  68; 6HR MAX TEMP:  72;

HAYWARD        CLEAR     68  56  65 W6        29.73S
6HR MIN TEMP:  67; 6HR MAX TEMP:  72;

SIREN          CLEAR     71  53  53 W5          N/A
RICE LAKE      CLEAR     69  54  57 W5        29.76S
6HR MIN TEMP:  69; 6HR MAX TEMP:  74;

LADYSMITH      CLEAR     70  55  59 W8        29.76S
EAU CLAIRE     NOT AVBL
MENOMONIE      PTCLDY    74  53  46 W7        29.76R
NEW RICHMOND   CLEAR     71  55  56 W6        29.76S
OSCEOLA        CLEAR     72  56  56 W7        29.78R
$$

WIZ003>005-009-010-017-018-020100-
NORTH CENTRAL WISCONSIN

CITY           SKY/WX    TMP DP  RH WIND       PRES   REMARKS
WOODRUFF       PTCLDY    69  58  67 W5        29.72R
RHINELANDER    CLEAR     67  54  63 W8        29.74R
6HR MIN TEMP:  66; 6HR MAX TEMP:  74;

EAGLE RIVER    CLOUDY    66  54  63 W9        29.71R
LAND O LAKES   PTCLDY    66  58  73 NW6       29.72R
PHILLIPS       CLOUDY    66  57  71 W3        29.73R
TOMAHAWK       CLEAR     68  55  64 CALM      29.74R
MEDFORD        CLEAR     68  56  66 W8        29.75S
MERRILL        CLEAR     70  57  63 W7        29.73S
$$

WIZ029-030-035-036-043>047-020100-
CENTRAL WISCONSIN

CITY           SKY/WX    TMP DP  RH WIND       PRES   REMARKS
WAUSAU         CLEAR     70  58  65 W10       29.73R
6HR MIN TEMP:  68; 6HR MAX TEMP:  75; 6HR PCP:  0.01;

MOSINEE        CLEAR     68  59  73 W7        29.75R
MARSHFIELD     CLEAR     70  58  65 W8        29.75R
6HR MIN TEMP:  70; 6HR MAX TEMP:  76; 6HR PCP:  0.01;

STEVENS POINT  CLEAR     71  58  65 W5        29.74R
WAUPACA        CLEAR     75  60  59 W7        29.73R
WAUTOMA        NOT AVBL
WISC RAPIDS    CLEAR     72  60  66 W8        29.76R
6HR MIN TEMP:  69; 6HR MAX TEMP:  76; 6HR PCP:  0.01;

CAMP DOUGLAS   NOT AVBL
$$

WIZ011>013-019>022-031-037>040-048>050-020100-
NORTHEAST WISCONSIN

CITY           SKY/WX    TMP DP  RH WIND       PRES   REMARKS
ANTIGO         CLEAR     68  57  67 W12G17    29.73R
STURGEON BAY   PTCLDY    72  64  78 W9        29.70R
6HR MIN TEMP:  68; 6HR MAX TEMP:  73;

GREEN BAY      CLEAR     73  65  75 W7        29.70R
6HR MIN TEMP:  70; 6HR MAX TEMP:  76; 6HR PCP: TRACE;

MANITOWOC      NOT AVBL
APPLETON       PTCLDY    72  63  73 SW8       29.72R
CLINTONVILLE   PTCLDY    73  61  64 W10       29.71R
OSHKOSH        PTCLDY    71  65  81 W7        29.73R
6HR MIN TEMP:  70; 6HR MAX TEMP:  76; 6HR PCP: TRACE;

$$

WIZ032>034-041-042-053>061-020100-
SOUTHWEST WISCONSIN

CITY           SKY/WX    TMP DP  RH WIND       PRES   REMARKS
LA CROSSE      CLEAR     76  59  55 W8        29.77R
6HR MIN TEMP:  67; 6HR MAX TEMP:  80; 6HR PCP:  0.03;

SPARTA         CLEAR     74  59  60 W6        29.78R
VIROQUA        MOCLDY    73  60  65 W7        29.80R
BOSCOBEL       CLEAR     76  63  64 W3        29.78S
6HR MIN TEMP:  73; 6HR MAX TEMP:  81; 6HR PCP:  0.08;

PRAIRIE DU CHI CLEAR     76  57  50 W8        29.78S
PLATTEVILLE    FAIR      74  64  69 CALM      29.81S
$$

WIZ056-057-062-063-064-067-068-020100-
SOUTH CENTRAL WISCONSIN

CITY           SKY/WX    TMP DP  RH WIND       PRES   REMARKS
BARABOO/DELLS  CLEAR     72  63  73 W5        29.77S
LONE ROCK      NOT AVBL
WATERTOWN      PTCLDY    73  65  75 NW7       29.76R
MADISON        MOCLDY    73  64  73 VRB3      29.78R
6HR MIN TEMP:  70; 6HR MAX TEMP:  78; 6HR PCP:  0.07;

MIDDLETON      FAIR      74  65  75 W5        29.78R
MONROE         PTCLDY    73  66  78 SW10      29.79R
JANESVILLE     CLEAR     73  64  73 W12       29.78R
$$

WIZ051-052-058>065-066-070>072-020100-
SOUTHEAST WISCONSIN

CITY           SKY/WX    TMP DP  RH WIND       PRES   REMARKS
MILWAUKEE      TSTM      75  66  73 W9        29.75R
6HR MIN TEMP:  75; 6HR MAX TEMP:  82; 6HR PCP: TRACE;

WAUKESHA       NOT AVBL
MILWAUKEE/TIMM MOCLDY    77  63  61 W12G17    29.76R
RACINE         CLOUDY    78  65  63 SW8       29.77R HX  80
6HR MIN TEMP:  78; 6HR MAX TEMP:  83;

BURLINGTON     MOCLDY    73  65  75 SW5       29.76R
KENOSHA        CLOUDY    77  67  71 SW9       29.76R
6HR MIN TEMP:  77; 6HR MAX TEMP:  82;

FOND DU LAC    PTCLDY    69  61  75 MISG      29.75R
6HR MIN TEMP:  69; 6HR MAX TEMP:  76; 6HR PCP:  0.01;

SHEBOYGAN      PTCLDY    73  63  70 W9        29.73R
6HR MIN TEMP:  73; 6HR MAX TEMP:  78;

WEST BEND      LGT RAIN  70  63  78 W15G23    29.76R
JUNEAU         PTCLDY    70  64  80 SW9       29.77R
$$

LSZ147-162-020100-
LAKE SUPERIOR

STATION/POSITION TIME  TEMP    WIND        PRES    WAVE
                       AIR SEA DIR/SP/G            HT/PER
                 (UTC) (F)     (DEG/KT/KT) (MB)    (FT/S)
W MID LAKE BUOY  2250   61 57  240/ 14/ 16 1003.0R   2/ 4
DEVILS ISLAND    2300   66     240/ 14/ 16 1004.2R
PORT WING        2340   68     260/ 10/ 12 1005.4R
SAXON HARBOR     2300   73      CALM  /  4 1005.1S
$$

LMZ867-665-643>646-020100-
LAKE MICHIGAN

STATION/POSITION TIME  TEMP    WIND        PRES    WAVE
                       AIR SEA DIR/SP/G            HT/PER
                 (UTC) (F)     (DEG/KT/KT) (MB)    (FT/S)
N MID LAKE BUOY  2250   67 65  220/ 12/ 16 1003.6R   2/ 6
NORTHPORT PIER   2300   73     240/  4/ 10 1004.1R
KEWAUNEE LAKESHO 2300   75     260/  6/ 12 1004.3R
SHEBOYGAN LAKESH 2300   76 55  250/ 13/ 14 1005.8R
ATWATER BUOY     2300   71     240/ 12/ 16 1007.9R
MILWAUKEE LAKESH 2300   79     260/  9/ 12   N/A
S MID LAKE BUOY  2250   73 70  220/ 10/ 10 1007.1R   2/ 3
KENOSHA   LAKESH 2300   81     240/  9/ 14 1006.8S
$$

TC  - TEMPERATURE IN CELSIUS
VSB - VISIBILITY IN STATUTE MILES
WCI - WIND CHILL INDEX
HX  - HEAT INDEX



USA.gov is the U.S. government's official web portal to all federal, state and local government web resources and services.